TimeEDT,TemperatureF,Dew PointF,Humidity,Sea Level PressureIn,VisibilityMPH,Wind Direction,Wind SpeedMPH,Gust SpeedMPH,PrecipitationIn,Events,Conditions,WindDirDegrees,DateUTC
12:15 AM,64.4,60.8,88,29.95,5.0,Calm,Calm,-,0.03,Rain,Light Rain,0,2013-07-27 04:15:00
12:35 AM,64.4,62.6,94,29.95,7.0,Calm,Calm,-,0.04,,Overcast,0,2013-07-27 04:35:00
12:55 AM,64.4,62.6,94,29.93,7.0,Calm,Calm,-,0.04,,Overcast,0,2013-07-27 04:55:00
1:15 AM,64.4,62.6,94,29.93,10.0,Calm,Calm,-,N/A,,Overcast,0,2013-07-27 05:15:00
1:35 AM,64.4,62.6,94,29.92,10.0,Calm,Calm,-,N/A,,Overcast,0,2013-07-27 05:35:00
1:55 AM,64.4,62.6,94,29.92,10.0,Calm,Calm,-,N/A,,Overcast,0,2013-07-27 05:55:00
2:15 AM,64.4,62.6,94,29.91,10.0,Calm,Calm,-,N/A,,Overcast,0,2013-07-27 06:15:00
2:35 AM,66.2,62.6,88,29.90,10.0,Calm,Calm,-,N/A,,Overcast,0,2013-07-27 06:35:00
2:55 AM,66.2,60.8,83,29.90,10.0,Calm,Calm,-,N/A,,Overcast,0,2013-07-27 06:55:00
3:15 AM,66.2,62.6,88,29.90,10.0,Calm,Calm,-,N/A,,Overcast,0,2013-07-27 07:15:00
3:35 AM,64.4,62.6,94,29.89,10.0,Calm,Calm,-,N/A,,Overcast,0,2013-07-27 07:35:00
3:55 AM,66.2,60.8,83,29.89,10.0,Calm,Calm,-,N/A,,Overcast,0,2013-07-27 07:55:00
4:15 AM,66.2,60.8,83,29.89,10.0,Calm,Calm,-,N/A,,Overcast,0,2013-07-27 08:15:00
4:35 AM,66.2,60.8,83,29.88,10.0,Calm,Calm,-,N/A,,Overcast,0,2013-07-27 08:35:00
4:55 AM,66.2,60.8,83,29.88,10.0,Calm,Calm,-,N/A,,Overcast,0,2013-07-27 08:55:00
5:15 AM,66.2,60.8,83,29.88,10.0,SSW,3.5,-,N/A,,Overcast,210,2013-07-27 09:15:00
5:35 AM,66.2,60.8,83,29.88,10.0,Calm,Calm,-,N/A,,Overcast,0,2013-07-27 09:35:00
5:55 AM,66.2,60.8,83,29.88,10.0,Calm,Calm,-,N/A,,Overcast,0,2013-07-27 09:55:00
6:15 AM,66.2,60.8,83,29.87,10.0,Calm,Calm,-,N/A,,Overcast,0,2013-07-27 10:15:00
6:35 AM,66.2,60.8,83,29.87,10.0,Calm,Calm,-,N/A,,Overcast,0,2013-07-27 10:35:00
6:55 AM,64.4,62.6,94,29.88,10.0,Calm,Calm,-,N/A,,Overcast,0,2013-07-27 10:55:00
7:15 AM,66.2,62.6,88,29.88,7.0,Calm,Calm,-,N/A,Rain,Light Rain,0,2013-07-27 11:15:00
7:35 AM,66.2,62.6,88,29.88,10.0,Calm,Calm,-,N/A,,Overcast,0,2013-07-27 11:35:00
7:55 AM,66.2,62.6,88,29.88,10.0,Calm,Calm,-,N/A,,Overcast,0,2013-07-27 11:55:00
8:15 AM,68.0,62.6,83,29.87,10.0,SSW,3.5,-,N/A,,Overcast,200,2013-07-27 12:15:00
8:35 AM,68.0,62.6,83,29.87,7.0,SW,3.5,-,N/A,,Overcast,220,2013-07-27 12:35:00
8:55 AM,68.0,62.6,83,29.87,7.0,SW,4.6,-,N/A,,Overcast,220,2013-07-27 12:55:00
9:15 AM,68.0,62.6,83,29.87,7.0,SSW,3.5,-,N/A,,Overcast,210,2013-07-27 13:15:00
9:35 AM,68.0,62.6,83,29.87,5.0,SW,4.6,-,N/A,Rain,Light Rain,230,2013-07-27 13:35:00
9:55 AM,68.0,62.6,83,29.86,7.0,SW,4.6,-,N/A,,Mostly Cloudy,220,2013-07-27 13:55:00
10:15 AM,69.8,64.4,83,29.85,7.0,SW,3.5,-,N/A,,Mostly Cloudy,220,2013-07-27 14:15:00
10:35 AM,69.8,62.6,78,29.85,10.0,WSW,4.6,-,N/A,,Mostly Cloudy,240,2013-07-27 14:35:00
10:55 AM,71.6,62.6,73,29.85,10.0,WSW,3.5,-,N/A,,Mostly Cloudy,240,2013-07-27 14:55:00
11:15 AM,71.6,62.6,73,29.85,10.0,West,8.1,-,N/A,,Scattered Clouds,280,2013-07-27 15:15:00
11:35 AM,71.6,60.8,69,29.84,10.0,West,9.2,-,N/A,,Scattered Clouds,270,2013-07-27 15:35:00
11:55 AM,73.4,60.8,65,29.84,10.0,WSW,5.8,-,N/A,,Scattered Clouds,250,2013-07-27 15:55:00
12:15 PM,73.4,60.8,65,29.84,10.0,West,10.4,-,N/A,,Scattered Clouds,270,2013-07-27 16:15:00
12:35 PM,73.4,59.0,61,29.83,10.0,WSW,6.9,-,N/A,,Scattered Clouds,240,2013-07-27 16:35:00
12:55 PM,73.4,55.4,53,29.82,10.0,WSW,5.8,-,N/A,,Clear,240,2013-07-27 16:55:00
1:15 PM,75.2,57.2,53,29.82,10.0,West,13.8,17.3,N/A,,Scattered Clouds,280,2013-07-27 17:15:00
1:35 PM,77.0,55.4,47,29.82,10.0,West,9.2,-,N/A,,Clear,270,2013-07-27 17:35:00
1:55 PM,77.0,55.4,47,29.81,10.0,SW,6.9,-,N/A,,Clear,220,2013-07-27 17:55:00
2:15 PM,77.0,55.4,47,29.81,10.0,West,6.9,-,N/A,,Clear,260,2013-07-27 18:15:00
2:35 PM,77.0,51.8,41,29.81,10.0,WSW,8.1,17.3,N/A,,Clear,250,2013-07-27 18:35:00
2:55 PM,77.0,55.4,47,29.82,10.0,WNW,19.6,25.3,N/A,,Scattered Clouds,290,2013-07-27 18:55:00
3:15 PM,75.2,57.2,53,29.82,10.0,West,12.7,20.7,N/A,,Scattered Clouds,280,2013-07-27 19:15:00
3:35 PM,73.4,55.4,53,29.82,10.0,WNW,16.1,24.2,N/A,,Scattered Clouds,290,2013-07-27 19:35:00
3:55 PM,73.4,55.4,53,29.82,10.0,West,16.1,24.2,N/A,,Scattered Clouds,280,2013-07-27 19:55:00
4:15 PM,69.8,55.4,60,29.82,10.0,West,12.7,24.2,N/A,,Mostly Cloudy,280,2013-07-27 20:15:00
4:35 PM,73.4,55.4,53,29.82,10.0,West,18.4,26.5,N/A,,Scattered Clouds,280,2013-07-27 20:35:00
4:55 PM,71.6,55.4,57,29.82,10.0,WNW,11.5,-,N/A,,Scattered Clouds,290,2013-07-27 20:55:00
5:15 PM,69.8,59.0,68,29.82,10.0,NW,12.7,19.6,N/A,Rain,Light Rain,310,2013-07-27 21:15:00
5:35 PM,69.8,55.4,60,29.83,10.0,WNW,13.8,19.6,N/A,,Mostly Cloudy,290,2013-07-27 21:35:00
5:55 PM,68.0,55.4,64,29.84,10.0,West,15.0,-,N/A,,Mostly Cloudy,280,2013-07-27 21:55:00
6:15 PM,69.8,53.6,56,29.85,10.0,WNW,17.3,-,N/A,,Mostly Cloudy,290,2013-07-27 22:15:00
6:35 PM,68.0,53.6,60,29.86,10.0,West,17.3,21.9,N/A,,Mostly Cloudy,280,2013-07-27 22:35:00
6:55 PM,64.4,51.8,64,29.86,10.0,WNW,13.8,20.7,N/A,,Mostly Cloudy,300,2013-07-27 22:55:00
7:15 PM,64.4,51.8,64,29.86,10.0,WNW,16.1,23.0,N/A,,Scattered Clouds,300,2013-07-27 23:15:00
7:35 PM,62.6,51.8,68,29.87,10.0,NW,6.9,-,N/A,,Scattered Clouds,320,2013-07-27 23:35:00
7:55 PM,62.6,51.8,68,29.88,10.0,WNW,10.4,16.1,N/A,,Mostly Cloudy,300,2013-07-27 23:55:00
8:15 PM,62.6,51.8,68,29.89,10.0,NW,11.5,18.4,N/A,,Mostly Cloudy,320,2013-07-28 00:15:00
8:35 PM,62.6,50.0,63,29.89,10.0,WNW,9.2,-,N/A,,Scattered Clouds,300,2013-07-28 00:35:00
8:55 PM,60.8,50.0,68,29.89,10.0,NW,4.6,-,N/A,,Clear,310,2013-07-28 00:55:00
9:15 PM,59.0,50.0,72,29.90,10.0,WNW,4.6,-,N/A,,Scattered Clouds,300,2013-07-28 01:15:00
9:35 PM,59.0,50.0,72,29.91,10.0,West,3.5,-,N/A,,Scattered Clouds,280,2013-07-28 01:35:00
9:55 PM,59.0,50.0,72,29.91,10.0,WNW,5.8,-,N/A,,Scattered Clouds,290,2013-07-28 01:55:00
10:15 PM,57.2,50.0,77,29.92,10.0,WNW,5.8,-,N/A,,Clear,290,2013-07-28 02:15:00
10:35 PM,55.4,50.0,82,29.92,10.0,West,3.5,-,N/A,,Clear,280,2013-07-28 02:35:00
10:55 PM,55.4,50.0,82,29.92,10.0,WNW,3.5,-,N/A,,Clear,290,2013-07-28 02:55:00
11:15 PM,55.4,50.0,82,29.92,10.0,West,3.5,-,N/A,,Clear,280,2013-07-28 03:15:00
11:35 PM,53.6,50.0,88,29.92,10.0,Calm,Calm,-,N/A,,Clear,0,2013-07-28 03:35:00
11:55 PM,53.6,50.0,88,29.92,10.0,Calm,Calm,-,N/A,,Clear,0,2013-07-28 03:55:00